Terminal Aerodrome Forecast
Issued by NWS Blacksburg, VA

Home | Current Version | Previous Version | Text Only | Print | Product List | Glossary On
Versions: 1 2 3 4 5 6 7 8 9 10 11 12 13 14 15 16 17 18 19 20 21 22 23 24 25 26 27 28 29 30
000
FTUS41 KRNK 020530
TAFROA
TAF
KROA 020530Z 0206/0306 26008KT P6SM SCT050
     FM021000 25003KT P6SM SCT040 BKN120
     FM021900 24010KT P6SM BKN050
     FM030000 29004KT P6SM BKN100=

USA.gov is the U.S. government's official web portal to all federal, state and local government web resources and services.